Regional Weather Roundup
Issued by NWS

Home | Current Version | Previous Version | Graphics & Text | Print | Product List | Glossary On
Versions: 1 2 3 4 5 6 7 8 9 10 11 12 13 14 15 16 17 18 19 20 21 22 23 24 25 26 27
000
ASUS45 KSLC 221910
RWRUT

UTAH REGIONAL WEATHER ROUNDUP
NATIONAL WEATHER SERVICE SALT LAKE CITY UT
100 PM MDT SUN OCT 22 2017

UTZ001>011-023>025-222000-

NORTHERN UTAH

CITY           SKY/WX    TMP DP  RH WIND       PRES   REMARKS
BRIGHAM CITY   MOSUNNY   60  18  19 SW8G17    30.36S
HILL AFB       SUNNY     59  23  25 S13       30.36F
LOGAN          CLOUDY    61  27  27 S13       30.34F
OGDEN          SUNNY     61  25  25 S13       30.35F
SALT LAKE CITY PTSUNNY   64  22  20 S14       30.36F
TOOELE VALLEY  SUNNY     64  32  29 CALM      30.35F
WENDOVER       SUNNY     53  22  29 E9        30.35
WEST JORDAN    SUNNY     59  28  30 SE14G24   30.37F

$$

UTZ011>015-024>027-222000-

CENTRAL/NORTHEAST UTAH

CITY           SKY/WX    TMP DP  RH WIND       PRES   REMARKS
PROVO AIRPORT  SUNNY     60  22  23 S6        30.40F
MOAB/CANYONLAN SUNNY     58  12  16 S5        30.40F
DELTA          SUNNY     59  14  17 CALM      30.41F
PRICE          MOSUNNY   55  19  24 SE6       30.42F
RICHFIELD      SUNNY     57  21  24 CALM      30.43F
ROOSEVELT      CLOUDY    52  19  28 E5        30.40F
VERNAL         CLOUDY    53  18  25 E3        30.38F

$$

UTZ013>016-019>022-027-222000-

SOUTHERN UTAH

CITY           SKY/WX    TMP DP  RH WIND       PRES   REMARKS
BRYCE CANYON   SUNNY     63  23  21 VRB5      30.50S
CEDAR CITY     SUNNY     64  26  23 VRB3      30.42F
MILFORD        SUNNY     64  19  17 S13       30.40F
ST GEORGE      CLEAR     63  17  17 VRB3      30.37F
HANKSVILLE     SUNNY     57  14  18 CALM      30.43F
KANAB          SUNNY     66  16  14 SW3       30.45F
BLANDING         N/A     58  13  16 S9        30.51F

$$

REGIONAL REPORTS     COLORADO/ARIZONA

CITY           SKY/WX    TMP DP  RH WIND       PRES   REMARKS
CRAIG, CO      CLOUDY    51  27  39 SW10      30.39F
GRAND JUNCTION SUNNY     57  15  19 E5        30.42F
RIFLE, CO      SUNNY     51  18  27 NW3       30.45F
MONTROSE, CO   SUNNY     55  15  20 VRB5      30.45F
CORTEZ, CO     SUNNY     61  17  18 W12G17    30.42F
COLORADO CITY    N/A     70  19  14 CALM      30.44F
PAGE, AZ       SUNNY     62  17  17 VRB5      30.41F
GRAND CANYON   SUNNY     66  22  18 CALM      30.47F
KINGMAN, AZ    SUNNY     76  17  11 N10       30.33F
FLAGSTAFF, AZ  SUNNY     63  16  16 VRB5      30.49F

$$

REGIONAL REPORTS    NEVADA/IDAHO/WYOMING

CITY           SKY/WX    TMP DP  RH WIND       PRES   REMARKS
LAS VEGAS, NV  SUNNY     73  21  14 CALM      30.31F
ELY, NY        SUNNY     62  24  23 VRB3      30.46F
ELKO, NV       SUNNY     64  29  26 SW16      30.41F
POCATELLO, ID  NOT AVBL
BURLEY, ID     CLOUDY    58  38  47 W13       30.28F
FORT BRIDGER,    N/A     55  30  37 W36G48    30.35F
EVANSTON, WY   SUNNY     54  32  43 SW29G41   30.37F
ROCK SPRINGS,  CLOUDY    53  27  36 W30G38    30.29F
KEMMERER, WY   SUNNY     52  30  43 W36G45    30.31F

$$




USA.gov is the U.S. government's official web portal to all federal, state and local government web resources and services.